Wind_Speed
45 44 43 42 40 39 37 36 35 34 32 31 30 29 28 27 26 26 25 25 24 24 24 24 24 24 24 23 23 22 21 21 21 20 19 18 17 16 16 16 15 15 15 14 14 14 14 13 13 13 12 12 11 10 9 9 9 8 8 8 9 9 9 9 8 8 8 8 8 8 8 8 9 10 10 10 10 9 10 10 10 11 12 12 13 14 15 16
46 45 44 43 42 40 39 37 36 35 33 32 31 30 29 28 28 27 26 26 26 25 26 25 25 25 24 24 23 23 23 22 22 21 20 19 18 17 17 16 16 16 16 15 15 15 14 14 14 13 12 11 11 10 9 9 9 9 9 9 10 10 10 10 10 9 9 9 9 9 10 9 9 10 11 11 11 10 10 11 11 12 13 13 14 15 16 17
48 47 46 44 43 41 40 38 37 35 34 33 33 32 31 30 29 28 28 27 27 27 27 26 26 26 25 25 25 24 24 23 22 21 20 19 18 18 17 17 16 16 16 16 15 15 15 15 14 13 12 11 11 10 10 10 9 10 10 10 11 11 11 11 11 11 11 11 10 11 11 10 10 11 11 12 12 11 11 12 12 13 14 15 16 16 17 18
49 48 47 45 44 42 41 39 38 36 35 34 34 33 32 31 30 29 29 28 28 28 28 27 27 26 26 26 26 26 25 24 23 22 21 20 19 18 18 17 17 17 17 16 16 16 16 15 14 13 12 11 11 10 10 10 10 10 11 11 12 12 13 13 13 13 13 12 12 11 11 11 11 11 12 13 13 12 12 13 14 14 15 16 17 18 19 19
50 49 48 47 45 44 42 41 39 37 36 35 34 34 33 32 31 31 30 30 29 29 29 28 28 28 28 28 28 27 26 25 24 23 22 20 20 19 18 18 18 18 17 17 17 16 15 15 14 13 12 12 11 11 11 11 11 11 11 12 12 13 13 14 14 14 14 13 13 12 12 11 11 12 12 14 15 13 14 14 15 15 16 16 17 18 20 21
52 51 49 48 47 45 44 42 40 39 37 36 35 35 34 33 33 32 31 31 31 30 30 30 29 29 29 29 29 28 27 26 25 24 23 21 21 20 19 19 19 19 18 18 17 16 16 15 14 13 13 12 12 11 11 11 10 10 11 11 12 12 12 13 13 13 13 13 13 12 12 11 11 12 14 16 17 15 15 16 16 17 17 17 18 19 21 21
53 52 51 50 49 47 46 44 42 40 39 38 37 36 35 34 34 33 33 32 32 31 31 31 30 30 31 31 31 30 29 27 26 25 24 23 22 21 21 20 20 20 19 18 18 17 16 15 15 14 14 13 12 11 10 10 10 9 10 11 11 11 11 12 12 12 12 12 12 12 12 11 11 13 15 19 18 16 18 17 17 18 18 19 19 20 20 20
55 54 53 52 50 49 47 45 44 42 40 39 38 37 36 36 35 35 34 34 33 33 32 32 32 32 33 33 32 31 30 29 27 26 25 24 24 23 22 22 21 20 20 19 18 18 17 16 16 15 14 13 12 11 11 10 10 10 10 11 11 11 11 11 11 11 11 11 11 12 13 12 13 14 18 22 19 17 19 19 19 19 19 20 20 20 19 19
56 55 54 53 52 51 49 47 45 43 42 41 40 39 38 37 37 36 36 35 35 34 34 33 33 34 34 35 34 33 32 30 29 28 26 25 25 24 24 23 22 21 20 20 19 18 18 17 17 16 15 14 13 12 11 11 11 11 11 11 11 11 11 11 11 11 11 12 12 14 14 14 15 15 20 23 19 18 20 20 20 20 20 21 20 20 19 19
57 56 56 55 54 53 51 49 47 45 43 42 41 40 39 38 38 38 37 37 36 36 35 35 35 35 36 36 36 35 33 32 31 29 28 27 26 26 25 24 23 22 22 21 20 20 19 18 18 17 16 15 14 13 13 12 12 12 11 11 11 11 12 12 12 12 13 13 14 15 16 16 16 17 21 22 19 19 20 20 20 21 21 21 21 21 20 20
59 58 57 56 55 54 53 51 48 47 45 43 42 41 40 39 39 39 39 39 38 37 37 36 36 36 37 37 37 36 34 33 33 31 29 28 27 27 26 25 24 24 23 22 22 21 20 20 19 18 17 17 16 15 14 13 13 13 13 12 13 13 13 14 14 14 14 15 15 17 16 16 17 18 21 21 19 19 20 20 21 22 22 22 22 22 22 22
60 59 58 57 57 56 54 52 51 49 47 45 44 43 42 41 40 40 40 40 40 39 38 37 37 37 38 39 39 38 36 35 34 33 31 30 29 28 27 27 26 26 25 25 24 23 22 21 21 20 19 19 18 17 16 15 15 14 14 14 14 14 14 15 15 15 16 16 17 18 15 15 18 19 19 20 19 20 20 21 22 22 22 23 23 23 23 22
61 60 59 58 58 57 56 54 52 51 49 47 46 45 44 43 42 41 41 41 41 41 40 39 38 38 39 39 40 39 38 37 35 35 34 32 31 30 29 28 28 28 27 26 25 25 24 23 22 22 21 21 19 18 17 17 16 16 16 16 16 16 15 16 17 16 17 17 18 20 15 13 18 20 18 19 20 20 21 21 22 21 22 22 23 23 23 22
60 60 60 59 59 58 57 56 54 52 50 49 48 47 46 45 44 43 43 43 43 43 42 41 40 39 39 40 41 41 39 38 37 37 36 34 33 32 31 30 29 29 29 28 27 26 26 25 24 23 23 22 21 20 19 19 19 18 19 19 19 17 17 18 19 18 19 19 20 21 16 12 18 21 19 20 21 21 21 20 20 20 20 20 21 21 22 22
58 59 59 59 59 59 58 57 55 54 52 50 49 48 47 46 45 44 44 44 44 44 43 42 41 41 41 41 42 42 41 40 39 38 37 36 35 34 33 32 31 31 30 30 29 28 27 26 26 25 24 24 23 22 21 21 20 21 22 21 20 19 19 19 20 20 21 22 22 23 20 14 17 22 22 22 22 22 21 20 19 18 18 18 19 20 21 21
55 57 58 58 59 59 59 58 57 55 54 52 51 50 49 48 47 46 45 45 45 45 45 44 43 42 42 42 43 44 43 42 42 40 39 38 37 36 36 34 34 33 32 32 31 30 29 28 27 27 26 25 24 23 23 23 22 24 24 23 21 21 21 20 21 22 23 24 24 25 23 18 18 22 23 23 24 24 22 20 20 18 18 19 20 20 21 22
52 55 56 57 58 58 58 58 58 57 55 54 53 52 51 50 49 47 46 46 46 46 46 46 45 44 44 43 44 45 45 44 43 42 41 40 39 39 38 37 36 35 35 34 33 32 30 30 29 28 27 26 25 24 25 25 24 25 25 23 23 23 23 22 22 24 25 27 27 27 25 22 21 23 24 25 26 25 22 21 20 20 20 21 21 22 22 23
50 52 54 55 57 57 58 58 58 57 57 56 54 53 53 52 51 50 48 48 47 47 47 47 46 46 45 44 44 45 46 45 45 44 43 43 42 41 40 39 39 38 37 36 34 33 32 32 31 30 29 27 26 26 26 26 25 25 25 24 24 24 24 24 24 25 27 29 29 29 27 24 24 25 26 27 28 26 23 22 21 22 23 23 23 24 24 24
48 49 51 52 54 55 57 57 57 57 57 57 56 55 54 53 53 52 51 50 49 49 48 48 47 47 46 45 45 46 47 47 47 46 46 45 44 43 42 41 41 40 39 38 36 35 35 34 33 31 29 29 29 28 28 27 26 25 25 26 26 25 25 25 26 27 29 30 31 31 30 28 26 26 28 30 31 28 24 23 23 24 24 25 26 26 25 25
49 49 49 50 51 53 54 55 56 57 57 57 57 56 56 55 54 54 53 52 51 51 50 49 49 48 48 47 47 47 48 49 49 49 48 47 46 45 44 43 43 42 41 39 38 38 37 36 34 32 31 31 31 29 29 28 27 27 27 27 27 27 26 26 28 29 30 32 32 32 32 30 28 28 29 32 33 30 27 26 25 25 26 27 28 27 27 27
50 50 49 49 50 50 52 53 54 55 56 56 56 56 56 55 55 54 54 53 53 53 52 52 51 50 50 49 48 48 49 50 50 50 50 49 49 48 46 45 44 43 42 42 41 41 40 38 36 34 34 33 32 31 30 30 29 29 29 29 28 28 28 28 29 30 32 34 34 34 35 33 31 32 32 33 34 32 30 29 26 26 27 28 29 28 27 27
52 51 50 50 50 50 50 51 52 52 53 54 55 55 55 55 55 55 54 54 54 54 54 53 53 52 51 51 50 50 50 50 51 52 52 51 51 50 49 48 47 46 45 45 44 43 41 39 38 37 36 35 34 33 32 32 31 31 31 30 30 30 30 30 31 32 34 35 36 37 38 36 34 35 35 35 35 33 32 30 28 28 29 29 30 29 28 27
55 53 52 51 50 50 50 50 51 51 52 52 53 53 53 53 54 54 54 55 55 55 55 54 54 53 53 53 52 51 51 51 52 53 53 53 53 52 51 50 50 49 48 47 46 44 43 41 40 39 38 36 36 35 34 34 33 33 32 32 31 31 32 33 33 34 35 36 38 40 41 39 37 38 37 37 37 34 31 29 28 28 29 31 31 30 28 28
58 56 54 53 52 51 50 50 50 50 51 51 52 52 52 52 52 53 54 55 56 55 55 55 55 54 54 54 53 53 53 53 53 54 54 55 55 54 53 53 52 51 50 49 48 46 44 43 42 41 39 38 37 36 36 36 35 35 34 33 33 33 34 35 35 36 36 37 39 42 45 43 39 39 37 36 37 34 29 28 28 28 30 32 31 29 28 28
60 59 57 55 54 53 52 51 50 51 51 51 51 51 51 51 51 52 53 55 56 55 55 55 55 54 54 54 54 53 54 54 54 55 55 56 56 56 56 55 54 53 52 51 50 48 46 45 44 42 41 40 39 38 38 38 37 36 35 35 35 35 36 36 37 37 38 39 40 43 47 46 42 40 38 36 35 31 27 27 27 28 31 32 31 30 29 29
59 60 59 58 57 56 54 53 52 51 51 51 51 50 51 50 51 52 52 55 58 55 54 55 55 54 54 54 54 54 55 54 54 55 56 56 57 57 57 57 56 55 53 52 51 50 48 46 45 43 42 41 41 40 39 39 38 38 37 37 37 37 37 37 37 38 40 41 42 44 47 49 45 41 38 36 32 26 23 24 25 27 30 32 32 31 30 31
56 57 58 60 60 59 57 56 54 53 52 52 51 50 51 50 51 51 51 55 59 55 52 54 55 54 53 52 53 53 54 53 53 55 56 57 57 58 58 58 56 55 53 53 53 51 49 47 45 45 44 43 43 41 40 40 40 39 38 38 39 38 38 38 38 39 41 43 46 47 47 50 47 41 38 36 30 23 21 21 23 26 28 30 31 31 31 32
51 53 54 57 60 61 60 58 57 56 54 54 53 52 52 51 51 51 51 55 59 56 52 53 54 54 53 52 52 53 54 52 52 53 54 56 57 58 58 57 56 55 53 54 54 53 51 49 47 47 46 46 43 41 41 41 41 40 40 41 40 39 39 39 39 41 43 46 49 48 47 49 48 43 41 38 30 25 22 21 23 24 25 27 29 30 32 33
48 49 47 50 56 60 61 60 59 58 57 55 54 54 53 52 53 52 52 56 58 57 54 52 52 53 53 52 52 52 53 53 52 52 52 54 56 56 57 56 55 54 54 55 55 54 53 51 49 48 47 46 44 42 42 42 42 42 42 42 41 40 39 39 41 43 45 49 50 48 47 49 50 46 40 37 33 30 27 25 26 26 26 26 28 30 33 35
49 48 45 46 48 52 57 60 61 60 59 58 57 56 55 55 54 54 56 58 57 58 56 52 51 51 51 51 51 51 52 52 52 51 51 53 54 55 55 55 55 55 55 55 55 55 54 52 51 49 47 45 44 43 43 43 43 42 42 42 41 41 40 41 43 44 48 50 50 49 48 50 53 47 38 36 36 33 31 30 30 30 30 29 30 32 36 38
50 49 48 46 44 46 51 57 61 62 60 60 59 58 58 57 57 58 59 57 57 59 58 53 50 50 51 50 50 50 51 51 51 51 50 51 52 54 54 54 55 55 55 55 55 55 54 52 51 49 47 46 45 44 44 44 44 43 42 41 41 42 42 44 46 47 50 51 50 50 50 53 55 49 40 38 37 34 34 34 33 35 36 35 34 36 38 40
52 52 50 47 44 45 48 52 57 61 63 62 61 60 60 59 61 63 60 56 57 61 60 55 52 51 52 52 51 51 51 51 51 51 51 50 51 52 52 53 52 53 54 55 54 54 53 52 51 50 49 48 47 46 45 45 44 42 41 41 42 44 46 48 50 49 50 50 50 51 53 55 54 46 41 39 38 36 36 35 36 39 41 40 39 39 39 40
52 55 57 53 49 46 47 50 53 57 60 62 62 62 61 62 64 63 61 59 61 62 59 56 55 53 53 53 52 52 51 51 51 52 52 52 52 52 52 53 53 53 55 54 53 53 53 53 52 52 51 49 47 46 44 43 42 42 42 43 44 46 48 50 50 50 51 51 51 53 55 54 50 44 40 39 38 37 37 37 39 41 42 41 38 37 36 36
46 51 57 58 54 50 49 52 54 55 56 58 61 63 65 66 64 61 61 62 62 62 60 59 58 56 55 54 53 53 52 51 51 52 52 52 52 52 52 52 53 53 53 53 54 53 54 54 52 51 50 48 46 44 44 43 43 44 44 45 47 48 49 49 49 50 53 54 54 55 56 52 47 45 43 39 37 37 38 39 40 41 42 41 36 34 35 34
44 45 52 57 59 55 51 52 55 55 57 59 61 63 67 66 61 59 60 62 62 62 63 64 63 60 57 56 55 54 54 53 53 53 53 53 53 52 51 51 51 51 52 53 54 53 54 54 52 50 49 47 47 46 45 45 46 46 47 49 50 49 47 47 49 52 54 57 57 56 55 51 48 47 45 41 38 38 39 40 40 40 39 38 37 36 36 36
49 47 48 54 59 59 56 54 54 55 58 62 65 67 65 60 56 56 57 59 61 61 61 64 65 63 61 59 57 57 56 55 55 54 55 55 54 53 52 52 52 52 52 52 53 53 54 53 52 51 50 49 48 48 47 47 48 49 50 51 49 47 47 48 51 54 56 59 59 58 55 51 48 46 43 41 40 39 41 41 40 39 36 36 38 39 39 38
56 53 50 50 53 58 61 60 57 58 60 63 67 68 63 57 54 55 56 57 59 60 60 62 63 63 62 61 59 59 58 58 57 57 55 55 57 56 54 53 53 53 52 51 52 53 53 54 53 53 51 50 49 49 49 49 50 51 52 50 48 48 50 51 54 56 57 60 61 60 57 51 48 46 41 39 41 42 42 42 40 39 37 37 39 40 40 39
59 58 56 52 50 52 57 60 61 62 64 66 67 65 62 60 56 57 59 58 58 59 60 62 63 63 62 62 61 60 60 60 60 60 59 59 59 57 55 55 54 53 52 51 53 53 54 55 55 54 54 53 52 52 52 53 53 54 53 51 51 52 54 54 55 57 58 61 62 61 58 51 47 44 42 42 44 44 44 42 42 41 40 40 39 38 39 39
60 61 59 57 55 53 53 56 58 62 67 71 70 65 61 57 57 60 62 59 58 59 59 59 60 61 62 61 62 62 62 62 61 62 62 62 62 59 57 56 55 54 54 53 54 54 53 55 57 58 57 56 56 56 57 56 55 54 53 53 54 55 57 57 57 58 59 61 62 61 58 52 45 44 45 46 47 47 46 44 44 44 43 42 40 37 38 40
60 61 60 59 59 59 57 55 55 58 63 66 67 68 62 53 52 57 59 60 61 61 60 59 60 61 61 60 60 60 61 62 62 62 62 63 63 62 61 60 59 58 57 57 56 55 56 58 60 60 60 60 60 59 58 56 54 53 53 55 56 57 58 58 59 60 59 58 58 58 58 53 46 45 47 49 50 48 47 46 46 46 45 44 42 40 40 42
61 61 61 60 61 63 64 64 62 60 61 61 60 63 63 57 53 54 56 60 63 64 63 62 62 62 61 60 60 59 59 60 60 60 61 60 61 62 63 63 62 61 59 59 59 58 59 59 59 60 62 62 61 60 59 58 57 57 57 59 60 59 59 59 60 61 58 56 55 56 58 54 47 45 48 51 52 48 48 50 49 48 47 47 46 43 41 43
63 61 60 61 62 65 68 71 71 69 67 63 59 60 62 60 57 56 56 57 61 64 64 63 63 64 64 64 64 63 63 62 61 60 59 58 57 57 58 60 59 59 58 58 59 58 58 57 58 60 63 62 61 61 61 62 62 63 64 65 64 63 62 60 59 58 56 55 55 56 59 55 46 45 50 54 53 50 51 54 52 49 47 47 48 47 43 43
65 62 61 63 64 65 69 73 74 74 72 67 62 60 61 60 59 58 58 58 59 60 60 58 55 56 59 63 65 66 66 65 65 63 60 58 57 56 57 59 59 59 58 58 57 56 56 57 58 60 61 61 61 61 61 62 64 66 67 66 63 62 59 56 56 55 55 56 56 57 62 57 49 48 52 55 55 53 54 56 55 52 49 46 47 49 47 43
66 64 64 65 65 66 69 72 74 76 75 72 69 66 62 60 61 61 60 60 61 60 60 59 55 51 52 55 59 63 65 64 65 65 63 62 60 59 59 60 60 60 59 58 56 55 55 55 54 55 56 58 60 62 63 64 64 63 60 58 56 54 53 53 54 55 56 57 55 59 63 59 52 53 55 56 57 56 57 57 55 52 51 48 46 49 49 45
67 67 67 67 66 67 69 70 70 73 75 76 76 74 69 65 63 61 60 62 63 63 62 62 60 57 53 53 55 58 60 61 61 62 64 64 63 62 62 62 62 62 60 59 58 56 56 56 55 55 56 57 58 61 62 60 57 55 53 52 52 51 51 53 54 55 57 58 58 62 65 59 55 56 57 56 57 57 57 57 57 53 50 49 48 49 51 48
68 69 69 68 67 66 67 68 69 72 73 74 76 77 77 74 69 65 64 64 64 65 64 64 63 61 57 54 54 56 58 60 60 61 62 64 64 64 64 64 63 63 63 63 62 62 61 61 60 60 60 60 59 59 59 58 58 57 57 56 56 56 58 58 59 61 61 61 63 65 65 62 59 57 56 55 56 58 58 58 57 55 52 52 52 52 51 49
68 70 71 70 69 67 64 65 68 71 71 72 74 76 77 77 76 74 72 70 67 65 65 65 66 66 63 58 55 55 55 58 62 64 63 63 62 63 63 63 62 61 62 63 64 65 65 65 65 65 65 64 63 63 63 64 65 64 64 64 64 65 65 66 68 67 64 66 69 65 63 64 61 56 55 56 56 58 61 59 56 55 56 55 54 53 51 50
67 69 70 71 72 71 68 66 66 68 69 71 74 74 74 75 76 77 77 75 72 70 69 68 68 67 66 63 61 59 56 55 60 63 64 64 62 62 61 61 60 59 58 60 62 63 64 65 66 66 67 67 66 65 65 67 68 67 68 69 68 68 68 70 72 70 69 73 74 67 65 67 64 57 54 56 58 61 61 59 57 57 58 57 54 52 51 51
65 67 69 70 72 73 72 71 69 68 67 68 71 73 73 73 73 74 75 76 76 75 74 74 71 69 67 66 67 67 64 62 60 59 61 62 61 61 61 61 61 60 59 59 60 60 62 62 62 62 64 65 64 63 63 65 66 66 67 68 67 67 68 70 71 70 71 74 74 70 69 69 64 57 54 57 61 62 61 60 59 59 58 56 54 53 53 52
62 63 65 68 71 71 71 71 72 73 71 69 70 72 72 72 70 70 71 74 76 76 75 75 74 71 70 70 71 71 70 68 66 61 60 61 61 62 63 63 62 61 61 61 61 62 62 62 60 59 61 63 63 63 63 64 65 65 65 66 66 67 69 71 71 69 69 71 71 69 69 67 61 56 55 57 60 61 62 61 59 57 54 54 54 54 53 53
61 61 63 65 68 69 69 69 70 72 73 72 72 72 73 73 71 70 70 71 72 72 73 73 72 71 71 72 73 74 71 69 69 67 65 66 66 66 65 65 63 62 62 62 61 61 61 60 59 58 59 60 61 62 64 63 62 62 63 64 66 68 70 71 69 66 66 68 67 65 66 64 57 51 52 55 57 59 60 59 57 54 52 53 54 54 53 53
63 63 63 64 67 67 67 68 68 69 72 72 71 71 72 72 70 69 69 70 69 69 70 70 70 71 73 74 73 72 70 69 69 69 69 69 70 70 69 68 67 65 63 62 62 60 57 56 56 57 60 60 58 58 61 60 59 61 63 64 65 66 66 65 66 66 66 66 66 65 64 59 52 50 53 55 56 57 57 56 56 54 53 54 55 53 51 50
Wind_Direction
205 204 205 205 206 206 207 207 208 208 207 207 207 207 207 208 209 210 210 210 208 207 206 206 206 207 208 208 207 203 199 198 196 194 193 193 192 192 192 192 193 196 198 200 202 205 209 211 213 214 214 215 215 215 215 215 217 221 227 234 241 249 256 262 267 271 275 279 282 285 287 291 295 298 300 303 306 310 313 314 312 311 311 310 311 313 314 315
207 207 207 207 208 208 208 209 209 209 209 208 208 208 208 208 209 210 211 211 210 209 207 207 207 208 208 207 205 200 197 196 195 194 193 193 194 194 194 195 196 198 200 202 203 206 209 211 212 213 214 214 215 216 217 219 223 229 236 242 249 256 262 267 271 274 277 280 282 284 286 290 294 295 297 301 303 307 311 311 309 311 311 310 310 310 311 311
209 209 210 210 210 210 210 211 211 211 210 209 209 208 209 209 210 210 211 211 211 211 209 208 208 208 207 205 202 198 197 196 195 195 195 195 196 196 197 198 199 201 202 204 204 206 208 210 210 210 212 213 215 219 223 227 231 237 244 251 258 263 269 273 275 278 279 280 282 284 286 288 290 292 295 299 300 304 309 310 311 313 313 311 311 309 308 307
212 212 212 212 212 212 212 213 213 213 213 212 210 210 210 210 211 211 212 212 213 212 211 210 209 209 207 204 201 198 197 197 197 197 197 198 198 200 201 201 202 203 203 204 203 204 206 208 208 208 211 214 219 224 230 236 241 246 251 257 264 268 272 276 278 280 281 282 283 285 287 288 288 289 293 296 297 301 307 308 311 314 313 311 310 307 306 306
214 214 214 214 214 214 214 214 215 215 215 214 213 212 211 212 212 212 213 213 214 214 213 212 211 210 207 204 200 198 199 200 199 199 200 201 202 203 204 204 204 204 204 204 203 203 205 207 209 211 215 220 225 231 237 244 249 254 259 263 267 272 275 277 279 281 282 284 285 287 287 289 290 290 293 294 295 300 304 305 309 312 311 309 306 305 305 306
216 216 216 216 215 215 215 215 216 216 216 216 215 214 214 214 214 214 214 215 215 215 214 213 212 210 208 204 201 200 202 203 203 203 203 204 205 206 207 207 207 206 206 205 205 205 206 209 212 216 219 224 229 235 240 248 254 259 265 269 271 275 277 278 279 281 283 285 286 288 289 292 294 294 295 293 295 300 301 303 308 309 308 305 303 304 306 306
218 218 218 218 217 217 216 216 216 217 217 217 217 217 216 217 216 216 216 216 216 216 215 214 212 211 208 205 203 202 203 204 206 207 206 207 207 208 208 208 208 208 208 207 207 207 209 211 214 218 222 225 229 235 242 249 257 263 268 272 274 277 278 279 280 282 285 287 290 292 293 296 296 297 297 292 295 300 301 304 307 305 304 303 303 305 306 306
219 219 220 220 219 219 218 217 217 217 217 218 218 219 219 219 219 219 218 218 217 217 217 215 213 211 209 206 205 205 205 206 208 209 209 209 209 209 210 210 210 210 210 210 210 210 211 213 217 220 224 227 231 237 244 251 259 265 269 273 276 278 279 280 282 284 287 291 295 296 297 300 299 300 295 290 295 302 302 304 304 303 303 303 304 305 305 304
219 220 220 221 221 220 220 219 219 219 219 219 220 220 221 221 221 221 221 220 219 219 218 216 215 212 209 208 207 207 206 207 210 211 210 210 211 211 212 212 212 213 213 213 214 214 215 217 220 224 227 230 235 240 246 252 259 264 268 272 276 279 280 282 283 285 289 293 297 297 299 301 301 300 291 289 299 303 301 302 302 303 303 304 304 304 303 302
220 221 221 221 221 221 221 221 221 221 221 222 222 223 223 223 224 224 224 223 221 220 219 218 216 213 211 209 209 209 209 209 211 213 212 212 212 213 214 215 215 215 216 217 217 218 220 221 224 228 231 234 239 242 247 252 257 263 267 271 275 278 280 283 283 286 291 295 298 298 300 303 301 296 289 293 302 301 300 302 302 304 304 304 303 301 300 298
221 221 222 223 223 223 222 222 222 223 223 224 224 225 225 226 227 227 226 225 224 222 221 220 218 215 213 211 211 211 211 211 212 213 214 213 214 215 216 217 218 218 219 220 221 222 224 226 228 231 234 237 241 244 248 253 257 262 267 270 274 277 279 281 283 288 293 296 297 296 300 304 299 291 290 298 302 300 301 302 302 304 303 302 300 298 296 294
222 222 223 224 224 224 224 224 224 224 224 225 225 226 227 228 229 229 228 227 226 225 223 222 220 218 215 213 213 213 213 214 214 215 216 215 216 216 218 219 220 221 221 222 223 225 227 229 232 235 237 240 243 246 250 253 258 263 267 271 275 277 280 282 286 292 295 296 296 294 300 304 294 290 294 299 299 299 301 301 303 304 302 300 297 295 294 292
222 223 223 224 225 225 225 226 226 226 226 226 226 227 228 228 229 230 230 229 227 226 225 224 222 220 218 216 215 215 215 216 216 216 217 218 218 218 219 221 222 223 224 225 226 228 230 232 235 238 240 243 246 249 252 256 260 263 267 270 272 275 279 284 288 293 295 294 293 291 296 302 293 293 297 296 295 297 299 301 303 303 302 300 297 294 292 292
223 224 224 224 225 226 226 227 228 228 228 229 229 229 229 229 230 230 230 230 228 226 225 225 224 222 221 219 218 216 216 217 218 218 219 220 220 220 221 222 224 225 227 228 229 231 233 235 238 240 242 244 248 252 255 258 261 263 266 267 269 273 278 284 289 293 292 291 290 289 293 300 296 296 298 295 295 297 299 303 304 303 303 300 297 294 293 292
223 224 225 225 226 226 227 227 228 229 230 231 231 231 232 231 232 232 231 230 229 227 226 225 225 224 223 221 220 219 218 219 219 220 221 222 223 223 223 224 225 227 228 230 231 233 235 238 240 241 243 245 249 253 256 259 261 264 264 265 270 276 280 284 289 290 289 289 290 290 292 299 298 297 298 298 298 299 303 305 304 303 301 298 297 296 295 294
222 223 224 225 226 226 227 227 228 229 230 231 232 232 233 233 233 233 232 232 230 228 227 226 226 225 225 223 222 221 220 220 221 221 222 223 225 225 226 226 227 229 230 232 233 235 237 239 241 242 244 247 251 254 257 259 261 262 264 268 274 279 281 284 285 286 287 289 290 291 293 300 299 296 298 300 300 301 305 306 303 300 297 296 296 296 295 293
223 223 223 224 226 227 227 228 228 229 230 231 231 232 232 233 233 233 233 232 231 229 228 227 227 226 226 225 224 224 223 222 222 223 224 225 226 227 228 229 230 231 232 234 235 236 238 240 242 244 246 248 251 255 257 259 260 263 269 274 277 279 281 282 283 285 286 288 289 291 294 300 298 296 300 301 300 302 306 304 300 296 294 295 295 294 293 293
224 224 224 224 225 226 227 228 229 229 230 230 231 231 232 232 232 232 232 231 230 229 228 228 228 228 228 227 226 226 225 224 223 224 225 226 227 228 229 230 232 233 234 236 237 238 240 242 244 245 247 249 251 254 257 259 263 268 273 275 277 278 279 280 281 282 284 286 289 291 293 296 296 298 301 300 300 304 307 303 297 293 292 293 293 292 292 293
224 224 225 225 226 226 227 228 229 230 230 230 230 231 231 232 232 232 232 232 231 230 229 229 229 229 229 229 229 228 227 226 225 225 226 227 228 229 230 231 233 234 235 237 238 240 241 243 245 246 248 249 251 254 258 262 266 270 272 274 276 277 279 279 279 280 283 285 287 290 291 292 294 298 301 300 300 304 307 300 293 291 290 289 289 291 292 293
223 224 225 226 226 227 227 228 229 230 230 230 230 230 231 231 232 232 232 232 232 231 231 231 231 231 230 230 230 230 229 228 226 226 227 228 229 229 230 232 233 235 236 238 239 240 242 244 245 247 248 250 253 256 259 263 266 268 271 274 276 278 278 278 278 280 282 283 285 288 289 290 294 296 297 298 300 304 303 296 291 289 286 285 286 289 290 292
222 223 224 225 226 227 228 229 229 230 230 231 231 231 231 231 232 232 233 233 233 232 231 232 232 232 232 231 231 231 231 230 229 228 229 229 230 231 231 233 234 236 237 238 240 241 243 245 246 247 249 251 254 256 259 262 264 267 270 272 275 277 277 277 279 281 282 284 286 288 288 290 293 293 294 297 299 301 299 294 292 286 281 281 283 285 287 290
223 223 223 224 225 226 227 228 230 230 231 231 232 232 232 232 232 232 232 233 233 233 232 232 232 233 233 233 232 232 232 232 231 230 230 230 231 232 232 233 235 236 237 238 240 241 243 245 246 247 250 252 255 257 259 261 263 266 269 271 274 275 276 277 279 280 283 286 288 289 288 289 291 291 293 297 299 298 296 294 291 284 279 278 279 281 285 287
224 224 225 225 225 225 226 227 229 230 231 232 232 233 233 233 233 233 233 233 233 233 233 233 233 233 234 234 234 233 233 233 233 232 232 232 232 233 233 234 235 236 238 239 240 242 244 245 247 249 251 253 255 257 260 261 264 265 267 270 273 274 276 278 279 281 284 288 290 291 289 288 289 289 293 299 299 298 296 292 288 283 279 276 276 279 281 282
227 226 226 227 226 226 226 227 228 230 231 231 232 233 234 234 234 234 234 234 233 233 234 234 234 235 235 235 235 234 234 234 234 234 233 233 233 233 234 235 236 237 238 239 241 242 244 246 247 250 251 253 255 258 260 261 263 264 267 270 272 274 276 279 282 283 285 288 290 292 291 287 287 289 294 300 300 299 297 292 287 282 278 275 275 276 277 279
232 230 229 229 229 229 228 228 228 230 230 231 232 232 233 234 235 235 236 235 234 233 234 234 235 235 236 236 236 236 236 235 235 236 235 235 234 234 235 235 236 238 239 240 241 243 245 247 248 249 251 253 255 257 258 260 262 265 267 270 272 274 277 280 282 284 287 288 290 292 291 287 287 290 295 299 299 298 298 295 288 281 277 276 276 276 277 279
234 232 231 231 230 230 230 230 230 231 231 232 232 232 233 234 235 236 237 238 235 233 234 235 235 236 236 238 238 238 238 236 236 237 237 236 236 236 236 237 237 238 240 241 242 244 246 247 248 250 251 252 254 256 258 260 262 265 268 270 272 274 277 279 282 285 287 289 290 290 290 288 286 289 295 297 297 297 299 297 288 279 277 278 279 277 278 279
234 234 234 233 233 232 231 230 231 232 232 233 232 233 234 234 235 236 237 239 237 232 233 235 236 237 237 238 239 239 239 238 238 238 238 238 238 238 238 238 239 240 241 242 243 245 246 247 248 250 251 252 254 257 258 260 263 266 268 270 271 274 276 279 281 284 286 289 288 287 290 291 286 287 293 293 295 298 299 297 288 281 280 281 280 277 276 277
233 234 235 235 234 233 232 231 231 231 232 233 233 234 234 234 235 235 236 239 237 233 232 234 236 237 236 236 238 239 240 238 238 238 238 239 239 238 239 239 240 241 242 243 244 245 246 247 248 250 252 254 256 257 259 261 264 266 267 269 271 274 276 278 281 283 285 286 285 286 291 292 288 287 291 293 296 300 298 296 291 287 285 282 278 275 274 276
230 231 234 235 234 233 233 233 233 232 232 233 233 234 235 235 235 235 237 238 237 235 233 233 235 237 237 237 237 239 240 239 238 238 238 238 239 239 240 240 240 242 242 243 244 245 246 247 249 250 252 255 256 258 260 262 264 265 267 269 271 273 275 279 280 282 283 282 284 287 290 293 289 284 287 294 297 298 297 295 292 291 289 285 280 278 277 278
230 230 233 236 235 235 234 234 235 235 234 234 233 234 235 235 236 236 237 237 237 238 236 233 234 237 238 239 239 240 241 241 241 239 238 238 239 240 240 240 241 242 243 244 245 246 247 248 250 252 254 256 258 259 261 262 263 265 267 269 271 274 276 278 278 278 279 280 285 288 290 293 287 280 286 294 293 295 296 296 295 294 291 288 285 283 281 282
230 230 232 234 234 235 235 235 235 236 236 235 235 234 235 236 236 236 237 237 238 240 239 236 234 236 238 240 240 240 241 242 243 242 241 240 241 241 242 242 243 244 245 246 247 249 250 251 253 254 255 256 257 258 259 261 263 265 268 270 273 274 274 274 275 275 277 281 286 288 290 290 283 280 290 293 290 294 295 296 299 297 294 293 291 287 285 286
231 231 232 233 232 233 234 234 236 236 236 236 236 236 236 236 236 237 237 237 239 240 240 238 236 234 236 238 238 239 239 240 241 242 242 241 241 242 243 244 245 246 247 248 249 250 251 252 253 254 254 255 256 257 259 261 264 267 269 271 272 272 273 273 274 276 278 283 286 287 289 286 280 283 290 289 289 292 293 296 299 297 296 297 295 292 290 290
231 233 233 232 231 231 231 232 233 235 237 237 237 237 236 236 237 239 239 238 239 241 242 241 239 236 236 236 237 238 239 240 240 241 242 241 241 240 241 242 243 245 246 247 249 250 251 251 253 254 256 257 259 260 262 264 265 266 267 268 269 271 272 273 276 279 281 283 284 286 287 283 281 285 288 286 288 290 291 294 296 295 297 298 296 294 294 294
224 230 233 233 231 229 228 229 231 233 235 237 238 238 236 237 238 240 241 240 241 242 243 243 243 241 239 239 239 240 240 241 242 243 244 244 243 242 242 243 244 246 248 249 251 252 253 253 254 257 259 260 262 263 263 264 265 265 266 266 267 269 272 275 278 280 281 283 283 284 284 282 282 285 284 283 285 286 289 292 293 294 298 299 298 296 297 298
218 223 230 233 231 229 227 228 230 231 232 234 236 238 237 238 239 240 242 242 242 243 243 244 244 243 241 240 240 241 242 242 242 243 244 245 246 246 246 246 247 248 249 251 252 254 255 256 256 258 260 261 262 262 262 263 263 264 265 266 268 270 273 275 277 278 280 282 282 283 283 282 282 282 281 282 283 284 288 291 291 293 297 299 298 299 301 301
222 219 223 229 230 230 229 230 231 232 232 233 235 236 237 238 239 240 242 243 243 243 244 245 246 246 244 242 241 242 243 243 243 243 243 245 246 246 246 247 248 249 249 251 254 255 256 257 257 258 259 259 260 261 262 263 264 265 265 267 270 271 272 274 275 277 278 279 281 282 282 282 281 277 277 282 285 286 288 290 289 290 295 294 295 301 303 301
228 223 220 222 226 229 230 232 233 234 233 234 237 238 239 239 239 239 240 241 242 244 245 246 248 248 247 246 245 244 244 244 245 245 244 244 244 244 245 247 248 249 251 253 255 256 257 258 257 258 258 258 259 260 261 262 263 264 266 267 269 270 271 273 274 275 277 278 280 281 281 281 278 275 278 285 285 285 287 289 289 290 293 293 295 300 301 299
232 229 224 221 222 225 228 231 234 236 235 234 237 240 241 241 241 240 240 240 241 242 243 244 246 248 248 247 245 245 245 245 246 246 246 246 245 243 244 246 248 250 251 253 255 255 256 257 257 257 258 258 258 258 259 260 262 264 265 267 268 269 270 271 273 274 276 278 279 280 279 277 276 279 286 287 284 283 285 288 291 292 292 292 294 297 298 298
232 231 228 225 224 223 224 226 230 235 237 236 236 237 240 241 240 240 241 241 241 242 242 243 245 247 247 247 246 246 245 245 245 246 247 247 246 244 244 246 247 248 250 252 253 254 255 255 255 255 256 256 256 257 258 260 262 263 265 266 267 268 270 270 271 273 274 276 277 277 278 277 279 284 286 283 282 282 284 288 292 292 290 290 293 295 296 297
232 231 229 228 227 225 223 222 224 231 236 237 235 233 234 235 234 236 239 240 241 242 242 243 244 246 247 248 248 248 247 246 244 245 245 246 245 245 245 247 247 248 249 251 253 253 254 254 254 255 255 256 257 258 260 261 262 263 263 264 265 267 268 270 271 271 271 271 273 276 279 280 280 282 281 280 280 282 286 290 292 291 288 288 291 294 295 295
232 231 229 227 228 227 225 223 223 227 232 235 234 232 232 233 233 233 236 238 239 241 243 244 246 247 248 249 250 250 250 248 246 244 244 243 244 244 244 247 249 249 251 252 253 254 255 256 257 257 257 257 258 259 260 260 260 261 261 263 264 265 266 265 266 267 268 271 274 278 279 279 278 279 280 280 281 284 288 289 289 290 289 289 292 295 296 294
233 231 229 228 227 227 226 225 225 227 230 230 230 231 232 232 232 231 232 234 236 238 240 242 245 247 248 249 250 251 251 251 249 247 245 242 241 242 244 246 249 250 251 252 253 253 255 256 256 256 256 257 258 258 259 260 261 262 262 263 263 263 262 263 265 268 271 272 274 275 275 276 277 279 279 280 282 285 287 288 288 289 288 290 294 296 295 293
233 231 229 228 228 227 228 228 227 228 230 229 228 230 230 229 229 229 229 231 234 235 234 235 239 243 245 246 248 249 250 251 251 250 248 246 243 242 244 246 248 250 251 252 253 254 254 255 255 257 257 258 259 259 259 260 260 261 262 263 264 264 265 266 267 269 269 269 271 273 273 274 277 278 279 280 283 285 286 286 287 287 286 288 292 292 292 293
234 232 230 230 229 229 230 230 229 230 231 230 230 230 229 227 227 226 226 228 231 233 232 232 234 238 241 243 244 246 248 250 252 252 251 250 247 244 245 247 248 250 251 252 253 254 254 255 255 256 256 256 256 257 257 258 260 262 264 265 266 266 266 267 267 269 269 268 270 270 269 274 281 281 281 282 284 285 285 285 285 285 286 287 287 289 292 295
234 232 232 231 231 232 232 231 232 232 232 231 232 232 231 229 227 226 227 228 229 231 233 233 234 236 240 243 244 245 246 249 251 252 252 251 249 247 248 248 249 250 251 252 253 254 254 253 253 253 253 252 253 256 258 260 263 264 264 264 264 264 264 266 268 269 268 267 267 267 269 276 281 279 280 282 283 283 284 284 284 283 285 286 286 288 292 294
232 232 232 231 232 233 234 233 233 234 233 233 234 234 233 233 231 229 229 230 230 231 233 233 233 234 237 241 243 245 246 247 248 249 250 250 250 249 250 251 251 252 252 254 254 255 255 254 253 253 255 254 255 258 260 262 263 262 262 263 264 265 266 267 268 267 268 269 269 268 271 275 275 275 278 280 280 282 281 280 281 283 286 288 289 290 291 290
231 232 232 232 232 232 232 233 234 235 235 235 235 235 234 234 233 233 233 232 232 232 233 233 233 234 234 236 239 242 244 246 247 246 247 248 249 250 251 251 252 253 253 254 254 254 255 256 255 256 257 258 259 260 261 262 262 263 263 264 265 266 268 268 268 268 269 271 269 268 271 274 272 273 276 277 278 278 277 277 281 284 286 287 288 290 289 286
230 231 232 233 233 232 231 232 233 235 235 236 237 236 235 235 234 234 235 235 235 234 235 234 234 234 234 234 236 238 239 242 245 245 246 247 248 249 250 251 251 252 252 253 253 254 256 257 257 258 260 261 261 261 261 262 264 264 264 265 265 266 266 267 268 268 268 269 269 269 271 272 272 274 276 277 276 274 275 279 282 283 284 285 285 284 282 281
229 230 231 232 234 234 233 232 233 234 234 236 238 238 237 237 236 236 236 237 237 237 237 237 235 235 236 236 237 238 238 240 243 244 245 247 248 250 251 251 251 252 252 253 254 256 258 260 260 261 262 262 261 261 262 263 263 263 263 263 263 263 264 266 267 267 267 268 269 270 271 271 274 277 277 275 273 273 276 279 280 281 282 282 279 276 276 277
231 230 231 232 234 234 234 234 234 234 233 234 236 237 237 238 238 237 238 238 239 239 239 240 239 238 240 240 241 242 241 244 246 246 247 249 250 250 251 252 253 254 256 257 258 258 260 262 262 263 264 263 261 260 260 261 262 261 260 259 259 261 263 264 265 266 267 268 270 272 272 271 273 276 276 274 274 275 276 276 277 279 279 276 273 272 272 272
232 231 231 232 234 234 234 234 235 236 236 235 235 236 237 238 237 238 239 239 240 240 240 241 241 241 242 242 243 243 243 245 249 249 250 252 251 250 251 252 252 254 256 258 258 259 260 262 261 262 263 263 262 261 261 263 265 263 260 258 259 261 263 265 266 268 269 271 271 270 270 271 275 277 275 273 271 271 271 272 274 274 273 271 270 269 269 270
232 232 232 233 234 234 233 234 234 236 236 236 236 237 238 239 238 238 240 240 240 240 241 240 240 240 242 242 243 244 244 246 249 249 249 251 251 250 251 251 251 251 252 253 254 255 255 257 258 258 260 263 262 263 265 265 263 261 260 261 263 264 265 266 267 267 268 269 269 268 269 272 275 275 272 270 269 267 266 268 269 269 269 268 268 268 268 269
Height
5802 5804 5806 5809 5811 5813 5816 5818 5820 5822 5824 5826 5829 5831 5833 5835 5837 5838 5840 5841 5843 5844 5846 5847 5849 5851 5852 5854 5855 5857 5858 5860 5861 5862 5864 5865 5866 5867 5868 5870 5871 5872 5873 5874 5876 5877 5878 5879 5880 5881 5882 5882 5883 5884 5885 5886 5886 5887 5887 5888 5888 5889 5889 5890 5890 5891 5891 5891 5891 5891 5891 5891 5891 5891 5891 5891 5891 5891 5891 5891 5891 5890 5890 5890 5890 5889 5889 5888
5799 5802 5804 5806 5808 5811 5813 5815 5818 5820 5822 5824 5827 5829 5831 5833 5835 5836 5838 5840 5841 5843 5844 5846 5848 5849 5851 5853 5854 5856 5857 5859 5860 5861 5863 5864 5865 5866 5868 5869 5870 5871 5873 5874 5875 5876 5877 5878 5879 5880 5881 5881 5882 5883 5884 5885 5885 5886 5887 5887 5887 5888 5888 5889 5889 5890 5890 5890 5890 5891 5891 5891 5891 5890 5890 5890 5890 5890 5890 5890 5890 5889 5889 5889 5888 5888 5888 5887
5796 5799 5801 5804 5806 5808 5811 5813 5816 5818 5820 5822 5824 5826 5829 5831 5833 5834 5836 5838 5839 5841 5843 5844 5846 5848 5850 5851 5853 5855 5856 5857 5859 5860 5861 5863 5864 5865 5867 5868 5869 5871 5872 5873 5874 5875 5876 5877 5878 5879 5879 5880 5881 5882 5883 5884 5885 5885 5886 5886 5887 5887 5887 5888 5888 5888 5889 5889 5889 5890 5890 5890 5890 5890 5889 5889 5889 5889 5889 5889 5888 5888 5888 5888 5887 5887 5886 5886
5794 5796 5799 5801 5803 5806 5808 5811 5813 5816 5818 5820 5822 5824 5826 5828 5830 5832 5834 5836 5838 5839 5841 5843 5845 5846 5848 5850 5851 5853 5855 5856 5857 5859 5860 5861 5863 5864 5866 5867 5868 5870 5871 5872 5873 5874 5875 5876 5877 5878 5878 5879 5880 5881 5882 5883 5883 5884 5885 5885 5886 5886 5886 5886 5887 5887 5887 5888 5888 5888 5888 5889 5889 5889 5888 5888 5887 5888 5888 5887 5887 5887 5887 5886 5886 5885 5885 5884
5791 5794 5796 5798 5801 5803 5806 5808 5811 5813 5815 5817 5820 5822 5824 5826 5828 5830 5832 5834 5836 5837 5839 5841 5843 5845 5846 5848 5850 5852 5853 5854 5856 5857 5859 5860 5862 5863 5864 5866 5867 5868 5869 5870 5872 5873 5874 5875 5876 5876 5877 5878 5879 5880 5881 5882 5882 5883 5883 5884 5884 5884 5885 5885 5885 5885 5885 5886 5886 5887 5887 5887 5888 5887 5887 5886 5886 5886 5886 5886 5886 5885 5885 5885 5885 5884 5883 5883
5788 5791 5793 5795 5798 5800 5803 5805 5808 5810 5812 5815 5817 5819 5822 5824 5826 5828 5830 5832 5833 5835 5837 5839 5841 5843 5845 5846 5848 5850 5851 5853 5854 5856 5857 5859 5860 5862 5863 5864 5865 5867 5868 5869 5870 5871 5872 5873 5874 5875 5876 5877 5878 5879 5880 5880 5881 5882 5882 5882 5883 5883 5883 5884 5884 5884 5884 5884 5885 5885 5885 5886 5886 5886 5885 5884 5884 5885 5884 5884 5884 5884 5884 5884 5883 5883 5882 5881
5784 5787 5790 5792 5795 5797 5800 5802 5804 5807 5809 5812 5814 5817 5819 5821 5824 5826 5828 5829 5831 5833 5835 5837 5839 5841 5843 5845 5846 5848 5849 5851 5853 5854 5856 5857 5859 5860 5861 5863 5864 5865 5866 5868 5869 5870 5871 5872 5873 5874 5875 5876 5877 5878 5878 5879 5880 5880 5881 5881 5881 5882 5882 5882 5882 5882 5883 5883 5883 5884 5884 5885 5885 5885 5884 5881 5882 5883 5882 5882 5882 5882 5882 5882 5882 5881 5881 5880
5780 5783 5786 5789 5792 5794 5797 5799 5801 5804 5806 5809 5811 5814 5816 5819 5821 5823 5825 5827 5829 5831 5833 5835 5837 5839 5841 5843 5844 5846 5847 5849 5851 5852 5854 5856 5857 5858 5860 5861 5863 5864 5865 5866 5867 5869 5870 5871 5872 5873 5874 5875 5875 5876 5877 5878 5878 5879 5879 5879 5880 5880 5880 5881 5881 5881 5881 5882 5882 5882 5883 5883 5883 5883 5881 5879 5881 5881 5880 5880 5880 5880 5880 5880 5880 5880 5879 5878
5776 5780 5783 5786 5788 5791 5793 5796 5798 5801 5803 5806 5808 5811 5813 5816 5818 5820 5822 5825 5827 5829 5830 5832 5834 5836 5838 5840 5842 5844 5845 5847 5849 5851 5852 5854 5855 5857 5858 5860 5861 5863 5864 5865 5866 5867 5868 5869 5870 5871 5872 5873 5874 5875 5875 5876 5877 5877 5878 5878 5878 5878 5879 5879 5879 5880 5880 5880 5881 5881 5881 5882 5882 5882 5879 5877 5879 5880 5879 5879 5878 5878 5878 5878 5878 5878 5877 5876
5772 5776 5779 5781 5784 5787 5790 5792 5795 5798 5800 5803 5805 5808 5810 5813 5815 5817 5820 5822 5824 5826 5828 5830 5832 5834 5836 5838 5840 5841 5843 5845 5847 5849 5851 5852 5854 5855 5857 5858 5860 5861 5862 5864 5865 5866 5867 5868 5869 5870 5871 5872 5873 5873 5874 5875 5875 5875 5876 5876 5877 5877 5877 5877 5878 5878 5878 5879 5879 5879 5879 5880 5880 5879 5876 5876 5878 5878 5877 5877 5876 5876 5876 5876 5876 5875 5875 5874
5767 5771 5774 5777 5780 5783 5786 5789 5791 5794 5796 5799 5802 5804 5807 5810 5812 5814 5817 5819 5821 5823 5825 5827 5829 5831 5833 5835 5837 5839 5841 5843 5845 5847 5849 5850 5852 5853 5855 5857 5858 5859 5861 5862 5863 5864 5865 5866 5867 5868 5869 5870 5871 5872 5873 5873 5874 5874 5874 5874 5875 5875 5875 5876 5876 5876 5877 5877 5877 5877 5877 5878 5877 5876 5875 5875 5876 5875 5875 5875 5875 5875 5874 5874 5873 5872 5872 5871
5763 5766 5770 5773 5777 5779 5782 5785 5787 5790 5792 5795 5798 5800 5803 5806 5808 5811 5813 5816 5818 5820 5823 5825 5827 5829 5831 5833 5834 5836 5839 5840 5843 5845 5846 5848 5850 5852 5853 5855 5856 5858 5859 5860 5862 5863 5864 5865 5866 5867 5868 5868 5869 5870 5871 5871 5872 5872 5872 5873 5873 5873 5873 5874 5874 5875 5875 5875 5875 5874 5876 5876 5874 5874 5874 5874 5873 5873 5874 5873 5873 5873 5872 5872 5871 5870 5869 5869
5758 5762 5765 5769 5772 5775 5778 5781 5784 5786 5789 5791 5793 5796 5799 5801 5804 5807 5809 5812 5815 5817 5819 5822 5824 5826 5828 5830 5832 5834 5836 5838 5840 5842 5844 5846 5848 5850 5851 5853 5854 5856 5857 5858 5860 5861 5862 5863 5864 5865 5866 5866 5867 5868 5869 5870 5870 5870 5870 5870 5871 5871 5872 5872 5872 5873 5873 5873 5873 5872 5874 5874 5872 5872 5873 5872 5872 5872 5872 5872 5871 5871 5870 5869 5868 5867 5867 5866
5754 5757 5761 5764 5767 5771 5774 5777 5780 5783 5785 5788 5790 5793 5795 5797 5800 5802 5805 5808 5811 5813 5816 5818 5821 5823 5825 5827 5829 5831 5833 5835 5838 5840 5842 5844 5846 5847 5849 5851 5852 5853 5855 5856 5857 5859 5860 5861 5862 5863 5863 5864 5865 5866 5867 5867 5868 5868 5868 5868 5868 5869 5870 5870 5870 5871 5870 5870 5870 5870 5872 5873 5870 5870 5870 5870 5870 5870 5870 5870 5870 5869 5868 5867 5866 5865 5864 5864
5749 5753 5756 5760 5763 5766 5769 5772 5776 5778 5781 5784 5787 5789 5791 5794 5796 5799 5801 5804 5807 5809 5812 5815 5817 5819 5822 5824 5826 5828 5830 5833 5834 5837 5839 5841 5843 5845 5846 5848 5849 5851 5852 5854 5855 5856 5857 5858 5859 5860 5861 5862 5863 5864 5865 5865 5865 5865 5865 5865 5866 5867 5868 5868 5868 5868 5868 5867 5868 5867 5869 5871 5869 5867 5867 5867 5867 5867 5868 5868 5867 5867 5866 5865 5864 5863 5862 5862
5744 5748 5751 5755 5758 5761 5764 5768 5771 5774 5777 5780 5782 5785 5787 5790 5793 5795 5798 5800 5803 5805 5808 5811 5813 5816 5818 5820 5823 5825 5827 5829 5831 5834 5836 5838 5840 5842 5843 5845 5847 5848 5849 5851 5852 5853 5855 5856 5857 5858 5859 5860 5861 5862 5862 5862 5863 5862 5862 5864 5865 5865 5866 5866 5866 5866 5865 5865 5865 5864 5865 5868 5868 5865 5865 5865 5865 5865 5865 5865 5865 5864 5864 5863 5862 5861 5860 5860
5740 5743 5747 5750 5753 5757 5760 5763 5766 5769 5772 5775 5778 5780 5783 5786 5788 5791 5794 5796 5799 5802 5804 5806 5809 5812 5814 5817 5819 5821 5823 5826 5828 5831 5833 5835 5837 5838 5840 5842 5844 5845 5846 5848 5849 5851 5852 5853 5854 5855 5856 5857 5858 5859 5859 5859 5860 5860 5860 5862 5863 5863 5863 5864 5863 5863 5863 5862 5862 5861 5862 5865 5865 5863 5863 5863 5862 5862 5863 5863 5862 5862 5861 5860 5860 5859 5858 5857
5736 5739 5742 5746 5749 5752 5756 5759 5762 5765 5767 5770 5773 5776 5779 5781 5784 5787 5789 5792 5795 5797 5800 5803 5806 5808 5810 5814 5816 5817 5820 5823 5825 5827 5829 5831 5833 5835 5837 5839 5840 5841 5843 5844 5846 5848 5849 5850 5851 5852 5853 5855 5856 5856 5856 5857 5857 5858 5859 5859 5860 5860 5861 5861 5861 5860 5860 5859 5859 5859 5860 5861 5861 5861 5860 5859 5859 5860 5861 5861 5860 5859 5858 5857 5857 5856 5855 5855
5731 5735 5738 5741 5745 5748 5751 5755 5757 5760 5763 5766 5768 5771 5774 5777 5780 5782 5785 5788 5790 5793 5796 5798 5801 5804 5807 5810 5812 5814 5816 5819 5821 5823 5825 5827 5829 5831 5833 5835 5836 5838 5839 5841 5843 5844 5846 5847 5848 5849 5851 5851 5852 5853 5853 5854 5855 5856 5856 5856 5857 5857 5858 5858 5857 5857 5857 5856 5856 5856 5856 5857 5859 5859 5858 5856 5856 5857 5858 5858 5857 5856 5855 5854 5853 5853 5853 5852
5726 5730 5733 5737 5740 5743 5746 5750 5753 5755 5758 5761 5763 5766 5769 5772 5775 5777 5781 5783 5786 5789 5792 5794 5797 5800 5803 5806 5808 5810 5812 5814 5817 5819 5821 5823 5825 5827 5829 5831 5832 5834 5836 5838 5840 5841 5842 5843 5845 5846 5847 5848 5849 5850 5851 5852 5852 5853 5853 5853 5854 5854 5855 5854 5854 5854 5854 5853 5853 5854 5853 5854 5856 5856 5856 5854 5853 5854 5854 5854 5854 5854 5852 5851 5850 5850 5850 5850
5721 5725 5728 5732 5735 5738 5742 5745 5748 5751 5754 5756 5759 5762 5764 5767 5770 5773 5776 5778 5781 5784 5787 5790 5793 5796 5799 5801 5804 5806 5808 5810 5813 5815 5817 5819 5821 5823 5825 5827 5829 5831 5833 5834 5835 5836 5838 5840 5842 5843 5843 5844 5846 5847 5848 5849 5849 5850 5850 5850 5851 5851 5851 5851 5850 5851 5851 5849 5850 5850 5849 5850 5852 5852 5853 5852 5851 5851 5851 5850 5851 5850 5849 5847 5847 5847 5847 5847
5716 5720 5723 5727 5730 5733 5737 5740 5743 5746 5749 5751 5754 5757 5760 5762 5765 5768 5771 5773 5776 5779 5782 5785 5789 5791 5794 5797 5800 5802 5804 5806 5809 5811 5813 5816 5817 5819 5821 5823 5825 5826 5828 5829 5831 5833 5835 5837 5838 5839 5840 5841 5843 5844 5845 5845 5846 5847 5847 5847 5848 5848 5848 5847 5847 5847 5847 5846 5846 5846 5845 5846 5848 5848 5849 5849 5849 5849 5847 5847 5847 5846 5845 5844 5843 5843 5844 5844
5712 5716 5719 5722 5725 5728 5732 5735 5738 5741 5744 5746 5749 5752 5755 5758 5761 5763 5765 5767 5770 5774 5777 5781 5784 5787 5790 5792 5795 5798 5800 5802 5804 5806 5809 5811 5812 5814 5817 5818 5820 5822 5823 5825 5827 5829 5832 5833 5834 5835 5837 5838 5839 5840 5841 5841 5842 5843 5843 5844 5844 5844 5844 5844 5844 5844 5844 5843 5842 5842 5839 5841 5843 5843 5845 5846 5844 5845 5845 5843 5843 5842 5841 5840 5839 5840 5841 5840
5708 5711 5714 5718 5721 5724 5727 5730 5733 5736 5738 5741 5744 5748 5751 5753 5756 5758 5760 5762 5764 5769 5773 5776 5779 5782 5785 5787 5790 5793 5795 5797 5799 5801 5803 5805 5807 5810 5812 5813 5815 5817 5819 5821 5823 5825 5828 5829 5830 5831 5833 5834 5835 5836 5837 5837 5838 5839 5840 5840 5840 5840 5840 5840 5840 5840 5841 5841 5839 5837 5833 5833 5838 5839 5842 5843 5841 5840 5841 5840 5839 5838 5836 5835 5836 5837 5837 5837
5704 5707 5710 5714 5717 5721 5723 5726 5729 5730 5733 5737 5739 5743 5746 5748 5751 5753 5754 5755 5759 5764 5768 5771 5775 5777 5780 5782 5786 5789 5790 5793 5795 5797 5799 5801 5802 5805 5807 5808 5811 5813 5815 5816 5818 5821 5824 5825 5826 5828 5829 5830 5831 5832 5832 5832 5833 5835 5836 5836 5836 5836 5836 5836 5836 5836 5837 5837 5836 5835 5828 5824 5829 5834 5837 5839 5838 5837 5838 5836 5835 5834 5831 5831 5832 5833 5833 5833
5699 5702 5706 5709 5712 5716 5720 5722 5724 5726 5729 5731 5735 5739 5741 5743 5746 5747 5749 5749 5752 5760 5764 5767 5770 5772 5776 5779 5781 5783 5784 5789 5792 5792 5794 5796 5797 5800 5802 5804 5807 5809 5810 5812 5814 5818 5820 5821 5822 5823 5825 5826 5827 5828 5828 5828 5829 5831 5832 5832 5832 5832 5832 5832 5833 5832 5832 5832 5832 5831 5826 5819 5820 5827 5831 5833 5834 5835 5835 5834 5831 5830 5828 5828 5829 5829 5829 5829
5693 5697 5701 5704 5707 5711 5714 5716 5719 5722 5725 5726 5731 5734 5735 5739 5740 5742 5745 5742 5746 5757 5761 5762 5765 5769 5773 5775 5776 5777 5779 5786 5788 5787 5789 5791 5792 5795 5797 5800 5803 5805 5806 5808 5810 5814 5816 5817 5818 5819 5819 5821 5823 5824 5824 5824 5825 5827 5828 5828 5827 5828 5828 5828 5829 5829 5829 5828 5826 5825 5825 5818 5814 5819 5825 5826 5830 5833 5832 5831 5828 5827 5826 5825 5825 5825 5825 5825
5688 5691 5694 5698 5702 5705 5708 5711 5715 5717 5719 5722 5727 5728 5730 5734 5734 5737 5739 5735 5741 5752 5755 5757 5761 5764 5767 5769 5771 5771 5774 5781 5781 5781 5785 5786 5787 5790 5792 5795 5798 5799 5801 5803 5806 5809 5811 5812 5813 5814 5815 5817 5819 5820 5819 5820 5821 5822 5823 5823 5823 5824 5824 5824 5825 5825 5825 5823 5820 5820 5822 5818 5811 5813 5818 5819 5825 5829 5828 5828 5825 5824 5824 5823 5823 5822 5822 5822
5683 5686 5689 5693 5695 5698 5702 5707 5710 5711 5714 5718 5721 5722 5725 5728 5729 5732 5731 5730 5739 5746 5749 5754 5756 5758 5761 5764 5766 5767 5770 5774 5775 5777 5779 5780 5782 5785 5787 5791 5793 5794 5796 5798 5801 5804 5805 5807 5809 5809 5811 5813 5814 5815 5815 5816 5816 5817 5818 5818 5819 5819 5819 5821 5820 5820 5820 5817 5816 5817 5818 5816 5808 5806 5813 5816 5819 5822 5823 5823 5821 5820 5820 5820 5819 5819 5818 5818
5678 5681 5685 5686 5689 5693 5698 5702 5704 5706 5710 5713 5714 5717 5720 5721 5723 5725 5723 5728 5738 5739 5742 5749 5752 5754 5757 5759 5761 5763 5765 5768 5770 5773 5774 5775 5778 5780 5783 5786 5787 5788 5791 5793 5796 5798 5800 5802 5804 5806 5808 5809 5810 5811 5811 5811 5811 5812 5813 5813 5814 5815 5815 5816 5815 5815 5814 5811 5814 5814 5814 5814 5802 5798 5810 5814 5813 5815 5816 5816 5816 5816 5816 5815 5816 5815 5814 5813
5673 5676 5678 5680 5685 5689 5693 5696 5698 5701 5704 5706 5709 5711 5713 5714 5716 5715 5718 5730 5736 5732 5735 5744 5748 5751 5753 5754 5756 5759 5761 5763 5765 5767 5769 5772 5774 5775 5779 5781 5783 5785 5786 5789 5792 5794 5795 5798 5800 5802 5803 5804 5805 5805 5805 5806 5807 5808 5809 5810 5810 5810 5810 5809 5809 5809 5807 5808 5812 5810 5809 5808 5797 5795 5807 5810 5808 5811 5810 5810 5811 5809 5809 5809 5810 5810 5809 5807
5668 5671 5673 5676 5681 5685 5688 5691 5693 5695 5696 5700 5703 5704 5707 5708 5705 5707 5719 5730 5728 5723 5729 5738 5743 5746 5747 5748 5750 5752 5755 5757 5759 5761 5764 5767 5769 5772 5775 5777 5779 5781 5782 5786 5788 5788 5790 5792 5794 5795 5796 5798 5799 5800 5801 5802 5803 5804 5805 5805 5805 5804 5803 5803 5803 5803 5803 5805 5808 5806 5804 5799 5791 5796 5805 5805 5805 5806 5806 5806 5805 5803 5802 5803 5803 5803 5802 5801
5662 5665 5667 5670 5676 5680 5683 5686 5687 5688 5691 5694 5696 5698 5700 5697 5696 5706 5719 5723 5719 5720 5727 5732 5735 5738 5740 5742 5744 5747 5749 5751 5753 5755 5757 5760 5763 5766 5769 5771 5774 5775 5777 5781 5781 5782 5784 5786 5788 5789 5791 5794 5795 5796 5797 5798 5799 5799 5800 5800 5799 5798 5797 5796 5798 5798 5799 5801 5802 5801 5799 5792 5789 5795 5800 5801 5802 5801 5801 5802 5800 5798 5797 5797 5798 5797 5796 5796
5655 5658 5660 5665 5670 5674 5677 5679 5681 5684 5687 5688 5688 5690 5690 5687 5694 5706 5712 5714 5714 5718 5723 5724 5726 5730 5734 5737 5740 5742 5744 5746 5749 5751 5752 5754 5757 5761 5765 5767 5769 5771 5774 5775 5776 5777 5779 5780 5784 5786 5787 5789 5790 5792 5792 5793 5793 5793 5794 5794 5793 5794 5792 5792 5794 5793 5793 5795 5795 5796 5793 5788 5788 5791 5793 5796 5798 5798 5797 5797 5796 5794 5792 5791 5792 5792 5791 5791
5647 5650 5654 5658 5662 5666 5671 5673 5675 5678 5680 5681 5681 5681 5679 5682 5694 5702 5704 5707 5710 5713 5716 5716 5717 5722 5727 5731 5734 5736 5738 5741 5744 5746 5747 5749 5753 5757 5760 5763 5766 5768 5770 5770 5771 5773 5773 5775 5779 5780 5781 5784 5784 5785 5786 5786 5786 5787 5788 5787 5788 5790 5789 5788 5788 5788 5788 5788 5788 5789 5787 5785 5786 5785 5786 5790 5793 5794 5794 5792 5791 5791 5790 5787 5786 5786 5786 5786
5640 5643 5647 5651 5655 5661 5665 5667 5669 5671 5672 5673 5671 5670 5674 5682 5692 5696 5699 5702 5703 5706 5710 5709 5710 5714 5719 5724 5728 5730 5732 5735 5737 5739 5741 5744 5747 5751 5755 5758 5760 5762 5764 5765 5765 5766 5767 5769 5772 5773 5775 5777 5777 5778 5779 5779 5780 5780 5781 5782 5783 5785 5784 5783 5782 5783 5783 5780 5781 5782 5780 5781 5782 5780 5782 5787 5788 5788 5788 5787 5787 5787 5787 5785 5782 5781 5781 5780
5633 5637 5641 5645 5650 5655 5658 5661 5663 5663 5665 5664 5661 5665 5674 5681 5687 5691 5693 5695 5696 5700 5704 5703 5703 5707 5712 5717 5721 5724 5727 5728 5730 5732 5735 5738 5740 5745 5749 5752 5754 5756 5759 5760 5759 5760 5760 5762 5764 5766 5767 5769 5771 5772 5772 5773 5773 5773 5775 5777 5778 5777 5777 5777 5775 5776 5776 5773 5774 5776 5775 5776 5777 5775 5779 5784 5783 5782 5782 5782 5782 5783 5783 5782 5779 5778 5776 5775
5626 5629 5634 5640 5645 5648 5652 5655 5657 5656 5657 5655 5654 5661 5670 5675 5683 5685 5685 5688 5691 5693 5695 5696 5697 5700 5704 5708 5713 5717 5718 5720 5723 5725 5728 5730 5733 5740 5745 5746 5748 5751 5753 5753 5752 5753 5754 5754 5757 5759 5760 5762 5764 5764 5765 5767 5767 5767 5769 5772 5772 5771 5771 5771 5769 5769 5769 5767 5767 5770 5770 5770 5771 5773 5776 5778 5776 5776 5777 5777 5777 5778 5778 5777 5777 5775 5772 5771
5617 5621 5628 5635 5638 5641 5644 5648 5650 5649 5646 5644 5647 5657 5664 5670 5677 5677 5678 5683 5685 5686 5688 5690 5693 5694 5695 5700 5704 5707 5709 5712 5716 5719 5721 5724 5728 5735 5739 5740 5743 5745 5745 5745 5744 5746 5748 5747 5748 5751 5752 5753 5754 5756 5759 5761 5762 5762 5764 5765 5765 5764 5764 5764 5763 5763 5763 5761 5760 5762 5764 5765 5769 5772 5771 5769 5769 5769 5771 5773 5773 5773 5772 5771 5772 5771 5769 5767
5609 5614 5623 5628 5630 5633 5637 5639 5640 5638 5635 5636 5643 5651 5658 5664 5667 5669 5673 5677 5678 5678 5682 5685 5687 5687 5689 5693 5696 5698 5702 5705 5709 5711 5714 5718 5723 5729 5733 5734 5736 5738 5737 5736 5736 5739 5740 5739 5741 5743 5744 5745 5747 5751 5754 5755 5755 5756 5756 5757 5758 5758 5757 5757 5757 5756 5755 5755 5755 5757 5758 5759 5764 5767 5764 5762 5762 5764 5766 5768 5767 5766 5765 5765 5767 5767 5765 5763
5602 5607 5616 5620 5620 5623 5626 5626 5626 5625 5626 5630 5637 5645 5651 5655 5659 5663 5667 5669 5670 5673 5676 5679 5680 5682 5685 5688 5689 5693 5695 5697 5700 5703 5706 5711 5717 5722 5726 5727 5728 5730 5729 5728 5730 5733 5732 5732 5734 5735 5736 5739 5742 5744 5746 5746 5747 5748 5749 5751 5752 5751 5750 5749 5747 5748 5750 5751 5752 5754 5753 5752 5758 5762 5758 5754 5755 5759 5761 5761 5760 5760 5759 5759 5760 5761 5761 5758
5594 5601 5610 5612 5611 5614 5615 5614 5616 5617 5616 5623 5632 5638 5641 5646 5652 5657 5660 5662 5663 5665 5669 5673 5674 5677 5680 5682 5684 5686 5687 5689 5692 5695 5699 5705 5711 5716 5719 5719 5719 5720 5721 5721 5723 5727 5726 5724 5725 5725 5729 5732 5734 5735 5738 5739 5740 5741 5741 5743 5744 5743 5743 5742 5742 5745 5747 5747 5747 5748 5745 5745 5752 5756 5753 5748 5750 5755 5755 5753 5753 5755 5754 5754 5753 5753 5754 5753
5587 5596 5601 5600 5601 5604 5603 5603 5607 5608 5609 5619 5627 5628 5631 5639 5644 5647 5651 5654 5654 5657 5662 5665 5668 5671 5673 5676 5678 5678 5680 5682 5684 5687 5693 5699 5704 5710 5711 5710 5710 5712 5713 5714 5717 5720 5718 5715 5717 5719 5722 5724 5725 5728 5731 5731 5732 5732 5733 5736 5737 5738 5739 5739 5739 5740 5740 5739 5742 5741 5736 5738 5746 5750 5747 5744 5746 5749 5748 5746 5747 5748 5748 5750 5749 5746 5746 5748
5580 5588 5589 5590 5593 5594 5592 5594 5600 5602 5607 5616 5618 5618 5624 5631 5633 5638 5644 5647 5648 5650 5654 5657 5660 5663 5665 5668 5669 5670 5673 5675 5676 5681 5687 5690 5696 5701 5701 5701 5703 5704 5706 5708 5711 5712 5709 5708 5711 5712 5713 5715 5717 5719 5721 5723 5725 5725 5728 5731 5732 5733 5735 5732 5732 5732 5730 5733 5736 5732 5728 5733 5741 5743 5741 5740 5741 5742 5741 5739 5740 5741 5742 5744 5744 5740 5740 5743
5571 5576 5578 5582 5584 5583 5585 5591 5596 5597 5602 5607 5607 5610 5617 5621 5626 5633 5637 5638 5640 5642 5645 5649 5653 5656 5658 5660 5662 5663 5666 5668 5670 5674 5678 5681 5687 5691 5692 5693 5695 5696 5699 5701 5702 5702 5700 5700 5703 5703 5702 5705 5708 5712 5716 5719 5720 5720 5723 5725 5725 5726 5726 5725 5726 5723 5721 5726 5728 5721 5722 5731 5736 5735 5735 5736 5735 5733 5734 5733 5732 5733 5734 5736 5737 5735 5735 5736
5561 5564 5568 5573 5575 5576 5580 5586 5587 5587 5593 5599 5600 5603 5609 5614 5621 5628 5628 5628 5632 5635 5638 5643 5646 5648 5650 5652 5654 5657 5660 5662 5665 5666 5669 5674 5679 5682 5683 5685 5687 5690 5692 5692 5692 5692 5690 5690 5693 5694 5694 5698 5703 5709 5712 5713 5711 5713 5716 5717 5717 5718 5718 5717 5716 5713 5715 5720 5717 5714 5719 5723 5726 5730 5730 5730 5730 5727 5726 5725 5724 5726 5727 5728 5728 5729 5729 5729
5551 5554 5560 5564 5566 5569 5573 5577 5578 5580 5588 5592 5591 5595 5602 5607 5614 5617 5616 5619 5625 5629 5632 5635 5637 5638 5640 5645 5648 5650 5654 5656 5656 5658 5663 5668 5671 5673 5674 5676 5679 5683 5684 5684 5684 5683 5681 5681 5685 5687 5688 5692 5699 5703 5704 5702 5703 5706 5709 5709 5710 5711 5710 5708 5705 5707 5713 5709 5702 5709 5716 5712 5715 5725 5726 5724 5725 5721 5717 5717 5720 5721 5721 5721 5721 5721 5721 5720
5542 5547 5553 5555 5556 5560 5565 5569 5572 5575 5581 5582 5582 5588 5594 5598 5603 5605 5608 5614 5619 5621 5623 5624 5627 5630 5634 5639 5642 5643 5646 5648 5647 5651 5657 5661 5664 5665 5666 5669 5672 5675 5677 5676 5675 5675 5673 5673 5678 5681 5681 5685 5691 5695 5696 5694 5695 5699 5699 5700 5702 5702 5700 5699 5698 5704 5706 5696 5692 5706 5710 5702 5706 5718 5722 5720 5718 5714 5711 5713 5715 5715 5714 5715 5715 5714 5713 5712
5535 5540 5545 5546 5547 5551 5557 5562 5564 5567 5572 5574 5574 5580 5586 5589 5595 5600 5604 5607 5609 5611 5614 5615 5621 5628 5631 5634 5634 5634 5637 5639 5640 5646 5651 5655 5657 5658 5659 5662 5664 5667 5668 5667 5668 5668 5665 5665 5672 5675 5673 5676 5682 5686 5688 5687 5686 5689 5689 5690 5692 5692 5691 5691 5692 5696 5696 5688 5689 5699 5700 5696 5702 5710 5714 5713 5710 5707 5707 5708 5708 5708 5708 5708 5707 5706 5706 5705
5529 5534 5538 5538 5538 5543 5549 5553 5554 5556 5562 5566 5566 5571 5577 5581 5588 5594 5596 5597 5599 5604 5608 5610 5618 5625 5626 5627 5626 5625 5631 5635 5636 5641 5646 5647 5648 5650 5651 5654 5657 5659 5659 5659 5660 5660 5658 5659 5666 5668 5664 5665 5672 5677 5679 5677 5676 5677 5680 5681 5683 5684 5684 5683 5684 5687 5687 5683 5686 5691 5689 5689 5697 5703 5704 5704 5702 5701 5701 5701 5701 5701 5700 5699 5699 5699 5699 5698
5522 5526 5529 5528 5529 5534 5539 5543 5546 5547 5552 5556 5558 5565 5570 5574 5580 5586 5586 5587 5591 5596 5600 5605 5613 5617 5616 5616 5615 5617 5626 5631 5631 5636 5639 5637 5637 5641 5642 5645 5648 5650 5650 5651 5652 5652 5652 5653 5658 5660 5654 5654 5664 5669 5668 5669 5666 5664 5668 5674 5677 5678 5676 5676 5678 5682 5681 5679 5680 5682 5678 5681 5693 5698 5695 5694 5694 5693 5692 5692 5693 5693 5693 5692 5691 5691 5691 5691
5514 5516 5519 5519 5519 5524 5530 5534 5536 5537 5541 5547 5554 5560 5564 5567 5574 5577 5575 5577 5583 5588 5592 5598 5604 5605 5604 5603 5607 5615 5623 5624 5624 5626 5627 5626 5628 5631 5632 5634 5637 5639 5640 5642 5642 5643 5646 5646 5649 5651 5645 5646 5657 5660 5660 5659 5651 5647 5658 5671 5673 5672 5670 5669 5671 5673 5674 5673 5672 5671 5671 5679 5687 5687 5683 5683 5684 5684 5685 5686 5686 5686 5685 5684 5683 5684 5684 5685